This is the latest recevied weather packets stored in our database for station/object KQ4HEI. If no packets are shown the sender has not sent any weather packets the latest 1 day(s).
| Time | Temp. | Humidity | Pressure | Rain* | Wind** | Luminosity | Snow |
|---|---|---|---|---|---|---|---|
| 1778081670 | 28.89° C | 64% | 1015.1 hPa | 0 mm | - | - | - |
| 1778080470 | 28.89° C | 64% | 1014.9 hPa | 0 mm | - | - | - |
| 1778077365 | 24.44° C | 89% | 1014.6 hPa | 0 mm | - | - | - |
| 1778077201 | 24.44° C | 89% | 1014.6 hPa | 0 mm | - | - | - |
| 1778077092 | 24.44° C | 89% | 1014.6 hPa | 0 mm | - | - | - |
| 1778075703 | 24.44° C | 89% | 1014.6 hPa | 0 mm | - | - | - |
| 1778075681 | 23.89° C | 94% | 1014.4 hPa | 0 mm | - | - | - |
| 1778073270 | 22.22° C | 99% | 1014.3 hPa | 0 mm | - | - | - |
| 1778072121 | 21.11° C | 99% | 1014 hPa | 0 mm | - | - | - |
| 1778072071 | 21.11° C | 99% | 1014 hPa | 0 mm | - | - | - |
| 1778070872 | 20.56° C | 99% | 1013.9 hPa | 0 mm | - | - | - |
| 1778069770 | 20° C | 99% | 1013.4 hPa | 0 mm | - | - | - |
| 1778069711 | 20° C | 99% | 1013.4 hPa | 0 mm | - | - | - |
| 1778069670 | 20° C | 99% | 1013.4 hPa | 0 mm | - | - | - |
| 1778068470 | 19.44° C | 99% | 1013.2 hPa | 0 mm | - | - | - |
| 1778067374 | 18.89° C | 99% | 1012.9 hPa | 0 mm | - | - | - |
| 1778067333 | 18.89° C | 99% | 1012.9 hPa | 0 mm | - | - | - |
| 1778067271 | 18.89° C | 99% | 1012.9 hPa | 0 mm | - | - | - |
| 1778064931 | 18.89° C | 99% | 1012.4 hPa | 0 mm | - | - | - |
| 1778064871 | 18.89° C | 99% | 1012.4 hPa | 0 mm | - | - | - |
| 1778063670 | 18.89° C | 99% | 1012.4 hPa | 0 mm | - | - | - |
| 1778061270 | 18.89° C | 99% | 1012.5 hPa | 0 mm | - | - | - |
| 1778060144 | 18.89° C | 99% | 1012.6 hPa | 0 mm | - | - | - |
| 1778058180 | 18.89° C | 99% | 1012.6 hPa | 0 mm | - | - | - |
| 1778057726 | 18.89° C | 99% | 1012.6 hPa | 0 mm | - | - | - |
* Rain latest hour (hover to see other rain measurements)
** Current wind speed in m/s (hover to see current wind gust speed)